Location: Hysolar-Haus
(48.7436°N, 9.0965°E)
Time: 18:06:09
(UTC+00:00)

Daily predictions for brighter satellites

Satellite Brightness Start Highest point End
(mag) Time Altitude Azimuth Time Altitude Azimuth Time Altitude Azimuth
Cosmos 1437 Rocket 4.4 19:31:31 10° SW 19:35:13 39° WNW 19:39:01 10° N
Cosmos 1844 Rocket 4.1 19:32:49 10° SW 19:38:08 45° NW 19:43:32 10° NNE
Cosmos 1354 Rocket 4.2 19:32:59 10° SSW 19:38:13 84° WNW 19:43:31 10° NNE
BREEZE-M R/B 1.6 19:35:38 10° WSW 19:38:22 82° SSE 19:40:48 10° ENE
USA 307 2.9 19:35:12 10° WNW 19:39:30 87° SSW 19:43:46 10° ESE
Resurs 01 Rocket 1.7 19:36:02 10° SSE 19:40:26 65° ENE 19:44:51 10° N
Cosmos 1271 Rocket 4.4 19:38:20 10° SE 19:41:11 19° E 19:44:03 10° NE
Cosmos 2278 Rocket 2.6 19:36:23 10° S 19:41:41 43° ESE 19:47:00 10° NE
Meteor 1-14 Rocket 4.3 19:40:05 10° N 19:45:57 71° ENE 19:51:38 10° SSE
Cosmos 1515 Rocket 4.2 19:42:40 10° SSE 19:46:41 36° E 19:50:42 10° NNE
Cosmos 1602 4.1 19:43:26 10° NNW 19:47:17 68° W 19:51:09 10° S
ATLAS 5 CENTAUR R/B 3.7 19:43:23 10° NW 19:48:32 35° WSW 19:54:26 10° S
Cosmos 1633 Rocket 3.2 19:45:41 10° NNW 19:50:06 80° W 19:54:31 10° S
USA 308 3.0 19:48:58 10° WNW 19:53:15 74° SSW 19:57:16 12° SE
SPOT 1/Viking Rocket 3.9 19:50:00 10° SE 19:55:01 52° ENE 20:00:04 10° N
Cosmos 1328 Rocket 3.5 19:55:40 10° S 20:00:06 85° E 20:04:31 10° N
Cosmos 1470 Rocket 3.6 20:00:56 10° N 20:05:28 86° ENE 20:09:58 10° S
Cosmos 1666 2.9 20:02:12 10° N 20:05:51 49° ENE 20:08:54 14° SSE
CRYOSAT 2 4.4 20:01:32 10° SSE 20:06:25 77° E 20:11:19 10° N
Cosmos 1812 2.7 20:03:39 10° S 20:07:26 61° E 20:11:17 10° NNE
Cosmos 1782 3.4 20:05:11 10° SSW 20:09:07 59° WNW 20:13:04 10° N
Cosmos 1538 Rocket 4.1 20:03:47 10° NNW 20:09:12 88° WSW 20:14:13 12° SSE
SPOT 3 Rocket 3.7 20:05:32 10° S 20:10:40 77° WSW 20:15:52 10° NNW
CARTOSAT-1 4.1 20:09:18 14° SE 20:12:43 44° ENE 20:16:50 10° N
Cosmos 1833 Rocket 3.0 20:07:43 10° NNW 20:13:21 68° WSW 20:18:46 11° SSE
ERS-1 Rocket 3.7 20:09:48 14° SE 20:13:47 39° ENE 20:18:27 10° N
Spot 2 Rocket 3.7 20:10:00 13° SE 20:14:24 57° ENE 20:19:21 10° N
Gbstr 26 Del rocket 4.5 20:10:35 10° WNW 20:18:30 75° NNE 20:25:13 10° E
Cosmos 44 4.1 20:13:51 10° NNW 20:19:09 49° NE 20:23:31 14° ESE
Cosmos 1933 Rocket 3.5 20:15:03 10° N 20:19:25 80° E 20:23:13 13° SSE
SWARM C 4.4 20:16:04 10° N 20:19:25 84° E 20:22:18 13° S
SWARM A 4.2 20:16:12 10° N 20:19:32 87° E 20:22:28 13° S
Cosmos 1680 Rocket 4.1 20:19:08 10° NNW 20:24:18 47° ENE 20:28:11 17° SE
ARIANE 5 R/B 2.6 20:24:04 17° SSE 20:27:22 66° ENE 20:31:42 10° N
Terra 2.7 20:24:48 16° SE 20:28:01 36° ENE 20:32:21 10° N
Meteor 1-11 Rocket 4.0 20:22:39 10° N 20:28:36 63° ENE 20:33:12 17° SSE
SJ 16-02 1.3 20:24:46 10° SSW 20:29:12 80° ESE 20:33:39 10° NNE
CZ-4C R/B 3.6 20:22:14 10° NW 20:29:15 51° WSW 20:36:44 12° SSE
Meteor 1-5 Rocket 4.2 20:24:32 10° NNW 20:29:55 74° W 20:34:57 11° S
Cosmos 1743 4.3 20:27:19 10° NNE 20:30:23 22° ENE 20:32:10 16° ESE
USA 305 3.7 20:27:51 10° WNW 20:31:50 40° SW 20:34:26 19° SSE
CREW DRAGON DEMO-1 DEB 4.3 20:32:21 10° W 20:34:23 20° SW 20:35:04 18° SSW
Cosmos 1340 Rocket 3.9 20:31:14 10° N 20:34:55 32° ENE 20:36:59 20° ESE
USA 245 2.6 20:40:42 27° SSW 20:41:37 48° W 20:43:55 10° NNW
Cosmos 2154 Rocket 4.1 20:35:37 10° N 20:41:55 65° ENE 20:46:31 19° SSE
Cosmos 2084 Rocket 4.0 20:38:26 10° NW 20:42:35 50° NE 20:45:30 19° ESE
Cosmos 2297 4.3 20:40:31 17° SSE 20:44:10 36° ESE 20:49:18 10° NE
SL-24 R/B - RUBIN 2 4.1 20:40:14 10° NW 20:45:50 70° NE 20:49:03 22° SE
ERBS 3.3 20:44:23 10° NW 20:47:32 40° NNE 20:49:39 18° E
SPOT 5 3.1 20:45:02 20° SSE 20:48:37 75° ENE 20:53:57 10° N
Cosmos 2184 Rocket 4.0 20:42:33 10° N 20:48:47 82° W 20:53:56 15° S
Cosmos 2074 Rocket 4.1 20:43:32 10° NNW 20:49:51 78° W 20:55:13 15° S
USA 306 4.1 20:47:32 10° WNW 20:51:17 30° SW 20:53:14 21° S
Nadezhda 1 Rocket 4.0 20:47:34 15° S 20:52:48 66° E 20:58:58 10° NNE
Meteor 1-10 Rocket 4.3 20:48:15 10° SSW 20:53:51 83° W 20:59:35 10° N
ISS -3.3 20:50:47 10° SW 20:53:55 36° SSE 20:55:33 22° E
Cosmos 1536 2.8 20:51:21 10° N 20:55:24 73° E 20:57:25 28° SSE
NOSS 3-4 (A) 4.2 20:49:12 10° NW 20:56:04 61° SW 21:01:33 20° SSE
NOSS 3-4 (C) 4.1 20:49:19 10° NW 20:56:11 61° SW 21:01:39 20° SSE
Cosmos 1818 3.9 20:51:27 10° NW 20:56:55 61° NE 21:00:27 22° ESE
Cosmos 1898 Rocket 3.7 20:56:19 20° S 20:59:50 51° ESE 21:05:00 10° NNE
Cosmos 2082 Rocket 2.6 20:54:19 10° NW 20:59:50 57° WSW 21:03:37 20° S
Cosmos 923 Rocket 4.1 20:56:32 10° NNW 21:01:48 72° WSW 21:05:05 23° S
Cosmos 990 Rocket 4.0 20:59:05 15° S 21:03:25 66° ESE 21:08:38 10° NNE
Iridium 4 Rocket 4.1 21:00:00 11° SSW 21:05:40 68° W 21:11:35 10° N
ATLAS 2AS CENTAUR R/B 2.8 21:02:13 10° NW 21:09:38 78° SW 21:13:55 25° SSE
Cosmos 1238 Rocket 4.2 21:05:23 10° N 21:11:12 46° ENE 21:13:46 27° SE
USA 215 4.4 21:05:10 10° ENE 21:11:15 44° N 21:17:22 10° WNW
Cosmos 1975 4.4 21:08:45 10° NNE 21:11:56 22° ENE 21:13:06 20° E
Cosmos 1515 4.4 21:13:19 33° ESE 21:13:59 36° E 21:17:28 10° NNE
Cosmos 967 Rocket 4.5 21:09:09 10° SSW 21:15:16 59° ESE 21:21:26 10° NE
Cosmos 2228 Rocket 3.4 21:13:18 16° SSW 21:16:46 64° WNW 21:21:15 10° N
Cosmos 1271 Rocket 4.0 21:13:05 10° SW 21:16:52 40° WNW 21:20:41 10° N
Resurs 01 Rocket 4.1 21:14:40 10° SW 21:17:22 16° W 21:20:04 10° NW
Cosmos 1943 Rocket 2.4 21:15:07 26° S 21:18:00 48° ESE 21:23:22 10° NE
RESURS DK-1 4.2 21:15:55 10° N 21:19:19 23° NE 21:21:36 15° E
SL-24 DEB 4.2 21:17:42 29° S 21:20:05 86° W 21:24:44 10° N
CZ-4B DEB 4.3 21:20:10 48° S 21:20:57 75° WSW 21:24:10 10° NNW
Cosmos 2181 Rocket 4.4 21:21:43 28° SE 21:24:30 44° E 21:30:15 10° NNE
Cosmos 2366 rocket 4.5 21:18:48 10° N 21:24:46 47° ENE 21:27:51 27° SE
Cosmos 1862 Rocket 4.2 21:24:10 33° ESE 21:25:07 38° E 21:29:08 10° NNE
Cosmos 2278 Rocket 3.7 21:20:37 10° WSW 21:25:51 38° NW 21:31:07 10° NNE
Cosmos 1869 Rocket 4.3 21:24:46 10° NNW 21:28:54 45° W 21:31:14 23° SSW
Cosmos 2369 Rocket 2.9 21:30:23 30° SE 21:31:44 34° ESE 21:36:46 10° NE
H-2A R/B 3.5 21:32:37 10° NNE 21:36:50 79° WNW 21:38:46 31° SSW
Cosmos 2341 Rocket 4.0 21:35:26 10° N 21:41:52 89° W 21:45:14 31° S
Meteor 1-27 Rocket 4.4 21:38:31 12° SSW 21:43:48 55° WNW 21:49:38 10° N
Meteor 2-9 Rocket 4.3 21:38:32 10° N 21:44:19 71° ENE 21:46:43 36° SSE
Cosmos 1461 3.1 21:43:44 38° S 21:45:22 61° ESE 21:49:56 10° NE
Cosmos 1707 Rocket 3.7 21:45:45 32° SSW 21:47:41 71° W 21:52:08 10° N
Cosmos 2218 Rocket 4.0 21:45:18 10° N 21:51:37 74° E 21:54:33 34° SSE
Cosmos 1544 4.4 21:48:56 10° NNW 21:52:12 32° W 21:53:15 27° SW
Cosmos 1867 4.2 21:51:38 35° SE 21:52:13 36° ESE 21:57:10 10° NE
ERS-1 Rocket 4.3 21:49:47 18° SW 21:52:39 31° W 21:57:08 10° NNW
DNEPR-1 R/B 4.0 21:47:06 10° SW 21:53:04 88° SE 21:58:00 10° NE
Cosmos 1937 Rocket 3.5 21:54:22 24° SSW 21:57:29 77° WNW 22:02:42 10° NNE
Meteor 1-19 Rocket 4.0 21:57:48 38° S 21:59:55 77° E 22:05:21 10° NNE
BREEZE-M R/B 2.9 21:57:45 10° WNW 21:59:25 40° W 21:59:25 40° W
Cosmos 44 4.4 21:55:24 10° NW 22:00:19 36° WSW 22:01:55 29° SSW
BREEZE-M DEB (TANK) 3.6 21:54:53 10° W 22:00:33 47° N 22:02:02 21° ENE
ATLAS CENTAUR R/B 3.0 22:07:22 18° E 22:07:22 18° E 22:08:51 10° ENE
Terra 3.1 22:03:40 22° SW 22:05:47 31° W 22:10:03 10° NNW
Gbstr 26 Del rocket 4.2 21:58:34 10° WNW 22:05:53 61° SW 22:08:22 37° SSE
Cosmos 1743 4.0 22:02:43 10° NNW 22:06:12 33° W 22:07:14 28° WSW
ALOS 2 3.5 22:06:07 32° ESE 22:07:16 38° ENE 22:11:21 10° N
SJ 16-02 4.2 22:05:40 10° W 22:08:23 16° NW 22:11:06 10° NNW
SL-8 Rocket 4.1 22:02:23 10° NNW 22:08:43 74° W 22:11:37 34° S
Cosmos 44 Rocket 4.4 22:06:20 10° NNW 22:11:19 42° NE 22:14:21 21° E
Okean 1 3.7 22:12:27 41° SW 22:13:30 56° WNW 22:17:27 10° N
Cosmos 1048 Rocket 4.2 22:08:43 10° NNW 22:14:02 65° ENE 22:15:49 40° SE
Meteor 2-4 Rocket 3.8 22:13:29 41° SSE 22:15:18 62° E 22:20:49 10° NNE
Cosmos 1733 Rocket 3.8 22:11:32 10° NNW 22:15:40 44° W 22:16:47 35° SW
ERBS 3.9 22:20:36 10° WNW 22:22:25 25° W 22:22:25 25° W
Cosmos 1833 4.2 22:23:40 10° NNW 22:29:28 81° ENE 22:31:33 42° SE
Cosmos 1378 4.3 22:30:27 32° E 22:30:27 32° E 22:33:28 10° NNE
ISS -3.4 22:27:16 10° W 22:30:38 65° NNW 22:34:00 10° ENE
Cosmos 1908 Rocket 3.6 22:29:11 10° NNW 22:33:41 76° W 22:34:25 60° SSW
SL-27 R/B 2.7 22:31:35 10° NNW 22:34:36 58° NE 22:34:36 58° NE
SL-08 R/B 4.4 22:28:48 10° N 22:35:04 88° E 22:37:26 42° S
Okean 3 4.2 22:36:47 38° E 22:36:56 38° E 22:40:53 10° NNE
Cosmos 2298 Rocket 4.0 22:36:12 50° SSE 22:37:24 66° ESE 22:42:39 10° NNE
Spot 4 3.9 22:36:18 50° SSW 22:37:25 67° WSW 22:42:17 10° NNW
Cosmos 2242 Rocket 3.5 22:37:34 65° S 22:38:12 82° E 22:42:42 10° NNE
SeaSat 1 4.3 22:35:56 10° ENE 22:38:46 16° E 22:38:46 16° E
Cosmos 372 Rocket 4.5 22:43:03 28° SW 22:45:32 54° WNW 22:50:33 10° NNE
Okean 2 Rocket 4.3 22:42:34 10° N 22:46:30 31° ENE 22:47:29 28° E
Cosmos 1975 3.9 22:44:52 10° NNW 22:48:28 34° W 22:48:50 33° WSW
Cosmos 1356 Rocket 3.4 22:48:52 10° N 22:53:11 73° ENE 22:53:38 65° SE
USA 215 3.7 22:47:18 10° ESE 22:53:44 62° NNE 23:00:10 10° NW
RESURS DK-1 2.8 22:53:33 10° NW 22:57:28 49° WSW 22:57:28 49° WSW
Lacrosse 5 3.0 22:58:57 29° ESE 22:58:57 29° ESE 23:02:29 10° ENE
Cosmos 494 Rocket 3.9 22:54:02 10° NNW 22:59:14 75° WSW 23:00:17 55° S
ATLAS 2AS CENTAUR R/B 4.3 22:54:48 10° WNW 22:59:20 18° WSW 23:01:21 16° SW
Cosmos 1943 Rocket 3.6 22:56:49 10° WSW 23:01:55 34° NW 23:07:01 10° NNE
Cosmos 1703 Rocket 3.8 23:03:11 51° WSW 23:03:55 59° WNW 23:08:19 10° N
Cosmos 1934 Rocket 4.1 22:58:48 10° N 23:04:56 66° E 23:07:06 40° SE
Cosmos 2150 Rocket 4.0 23:03:52 46° SSW 23:05:29 81° WNW 23:10:48 10° NNE
Cosmos 1782 Rocket 3.6 23:01:30 10° NNW 23:05:55 64° W 23:06:23 59° SW
Cosmos 2344 4.3 22:59:24 10° NW 23:08:35 85° SW 23:17:49 21° SE
Okean 1-7 3.4 23:08:27 48° WSW 23:09:06 53° WNW 23:13:19 10° N
Cosmos 1821 Rocket 4.1 23:03:27 10° NNW 23:09:50 70° W 23:12:02 42° SSW
COSMOS 2455 3.9 23:04:20 10° NNW 23:10:04 42° NE 23:15:12 13° ESE
Meteor 1-12 Rocket 4.3 23:04:56 10° NNW 23:10:47 75° W 23:12:26 48° S
Cosmos 1656 Rocket 3.8 23:13:01 36° SW 23:15:15 66° WNW 23:20:48 10° NNE
Cosmos 2369 Rocket 3.0 23:12:07 21° WSW 23:15:37 46° NW 23:21:05 10° NNE
Cosmos 1733 3.5 23:11:59 10° N 23:15:44 57° ENE 23:15:45 57° E
Cosmos 1125 Rocket 3.5 23:17:31 48° SW 23:18:58 78° WNW 23:24:13 10° NNE
EO 1 Del DPAF 4.4 23:16:41 10° NNE 23:19:46 31° E 23:19:46 31° E
Cosmos 1607 4.3 23:17:34 24° SW 23:21:40 68° NW 23:28:10 10° NE
COBE Rocket 4.2 23:21:24 48° SW 23:22:24 56° W 23:27:30 10° NNW
NOSS 2-1 (C) 4.1 23:21:34 10° NW 23:26:24 80° SW 23:28:42 40° SSE
Resurs 1-4 Rocket 4.4 23:25:52 10° ENE 23:27:45 12° E 23:29:37 10° ESE
NOSS 2-1 (D) 4.1 23:28:25 10° NW 23:33:16 73° SW 23:35:20 43° SSE
Cosmos 2221 Rocket 3.6 23:33:45 63° SSE 23:34:20 74° E 23:38:54 10° NNE
COSMOS 2487 2.8 23:31:18 10° NNW 23:34:09 60° NNW 23:34:09 60° NNW
Cosmos 1867 4.3 23:32:14 21° WSW 23:35:42 49° NW 23:41:03 10° NNE
Cosmos 1535 Rocket 4.4 23:30:21 10° N 23:36:38 83° W 23:38:51 44° S
Meteor 1-15 Rocket 4.3 23:32:58 10° NNW 23:38:41 72° W 23:40:19 48° SSW
Cosmos 1805 3.4 23:37:30 10° NNW 23:41:13 58° W 23:41:13 58° W
ALOS 2 4.0 23:43:30 26° W 23:43:43 26° W 23:47:24 10° NW
ATLAS CENTAUR R/B 2.3 23:43:27 32° WNW 23:44:25 38° NW 23:48:03 10° NNE
EO 1 Delta rocket 4.2 23:43:19 47° SSE 23:44:58 90° ENE 23:51:26 10° N
Okean 1 Rocket 3.8 23:40:59 10° N 23:45:13 45° ENE 23:46:17 37° ESE
Cosmos 1674 Rocket 3.7 23:51:17 55° SE 23:51:55 62° E 23:56:21 10° NNE
SL-16 R/B 4.0 23:46:44 10° ESE 23:52:12 33° ENE 23:57:40 10° N
Cosmos 44 Rocket 3.9 23:48:01 10° NW 23:52:54 41° WSW 23:53:02 41° WSW
